Temperature
19 20 20 20 20 20 19 19 19 19 19 19 19 19 18 18 18 18 19 19 19 19 19 18 19 19 19 18 18 18 18 19 19 19 19 19 19 19 19 19 19 19 19
20 20 20 20 20 19 19 19 19 19 19 18 18 18 18 18 18 19 19 19 19 19 18 19 19 19 19 19 18 18 18 18 18 19 19 19 19 19 19 19 19 19 19
20 20 20 20 20 19 19 19 19 19 18 18 18 18 18 18 18 19 18 18 18 18 18 18 19 19 19 19 18 18 18 18 18 18 18 19 19 19 19 19 19 19 19
20 20 20 20 20 19 19 19 19 18 18 18 18 18 18 19 19 18 18 18 18 18 18 18 19 19 19 18 18 18 18 18 18 18 18 19 19 19 19 19 19 19 19
19 19 20 20 19 19 19 19 19 18 18 18 18 18 19 19 19 18 17 18 18 18 18 18 19 19 19 18 18 18 17 17 18 18 18 18 19 19 19 19 19 19 19
20 19 19 19 19 19 19 19 18 18 18 18 18 18 19 19 19 18 18 18 18 18 18 19 19 19 19 18 17 17 17 17 18 18 18 19 19 19 19 19 19 19 19
20 19 19 19 19 19 19 18 18 18 18 18 18 18 18 18 18 18 18 18 18 18 18 19 19 19 19 17 17 17 17 17 17 18 18 19 19 18 18 18 18 18 18
20 20 19 19 19 19 19 19 18 18 18 18 18 18 18 18 18 18 18 18 18 18 19 19 19 19 18 17 17 17 17 17 17 17 18 18 18 18 18 18 18 18 18
20 20 19 19 19 19 19 19 19 18 18 18 18 18 18 18 18 18 18 18 18 18 18 18 18 18 17 17 17 17 17 17 17 17 17 18 18 18 18 18 18 18 18
20 20 20 19 19 19 19 18 18 18 18 18 18 18 18 18 18 18 18 18 18 18 18 18 17 17 17 17 17 17 17 17 17 17 17 17 18 18 18 18 17 17 17
20 19 20 20 19 19 19 19 18 18 18 18 18 18 18 18 18 18 18 17 18 18 18 17 17 17 17 17 17 17 17 17 17 17 17 17 17 17 18 18 17 17 17
20 20 19 20 19 19 19 19 18 18 18 18 18 18 18 18 18 18 17 17 18 17 17 17 17 17 17 16 16 16 17 17 17 17 17 17 17 17 17 17 17 17 17
21 20 19 20 19 19 19 19 19 18 18 17 18 18 18 18 17 17 17 17 17 17 17 17 17 17 16 16 16 16 17 17 17 17 17 17 17 17 17 17 17 17 17
21 20 20 20 19 19 19 19 19 18 18 17 17 18 18 17 17 17 17 17 17 17 17 17 17 17 17 16 16 17 17 17 17 17 16 16 16 17 17 17 17 17 17
21 21 20 20 19 19 19 19 18 18 18 17 18 18 18 17 17 17 17 17 17 17 17 17 17 17 17 17 16 17 17 16 16 16 16 16 16 16 16 16 16 17 17
21 21 20 20 19 19 19 19 18 18 18 17 18 18 17 17 17 17 17 17 17 17 17 17 16 16 17 17 17 17 16 16 15 16 16 16 16 16 16 16 16 16 16
21 20 20 20 19 19 19 19 18 18 18 17 18 18 18 17 17 17 17 17 17 17 17 17 16 16 17 17 16 16 16 15 15 15 15 16 16 16 16 16 16 16 16
22 21 20 20 20 20 19 19 18 18 18 18 17 18 18 17 17 17 17 17 17 17 17 17 17 16 16 16 16 16 16 15 15 14 15 15 16 16 16 16 16 16 16
22 21 20 20 20 20 20 19 18 18 17 18 18 18 18 17 17 17 17 17 17 18 17 17 17 16 16 16 16 16 15 15 15 14 15 15 15 15 16 16 16 16 16
21 21 20 20 20 20 19 19 18 18 17 17 18 17 17 17 17 17 17 17 17 18 17 17 17 16 16 16 16 15 15 15 14 14 14 14 14 15 15 15 16 16 16
20 20 20 20 20 19 19 19 18 18 17 17 17 17 17 17 17 17 17 18 18 18 18 17 17 16 16 16 16 15 15 15 14 14 14 14 14 14 15 15 16 16 16
20 19 19 19 19 19 19 18 18 18 17 17 17 17 17 17 17 18 18 18 18 18 18 17 17 16 16 16 16 15 15 14 14 14 14 14 14 14 15 15 15 16 16
19 18 18 18 18 18 18 17 17 17 17 17 17 17 17 17 17 17 18 18 18 18 18 18 17 17 17 16 16 16 15 14 14 14 14 14 14 14 15 15 15 15 15
19 18 17 17 17 17 17 16 16 16 16 16 17 17 17 17 17 17 18 18 18 18 18 18 17 17 17 17 16 16 16 16 15 14 14 13 13 14 14 14 14 15 15
18 17 17 16 16 16 16 16 16 16 15 16 16 16 16 17 17 17 17 17 18 18 18 17 18 18 17 17 17 16 16 16 16 15 14 13 13 13 14 14 14 14 15
18 17 17 16 16 16 15 15 15 15 15 15 15 15 16 16 16 16 16 17 17 17 17 17 17 17 17 17 17 17 16 16 16 16 15 14 13 13 13 13 14 14 14
Wind_Speed
6 9 13 12 12 11 10 11 11 11 11 11 11 11 12 11 11 10 10 11 13 15 14 15 14 13 13 12 13 14 14 14 12 11 11 11 10 9 9 11 9 7 10
10 12 14 13 12 11 11 11 11 11 11 11 12 12 12 12 11 11 11 12 13 14 14 14 13 12 12 13 14 15 15 17 15 14 12 10 10 10 10 9 7 7 10
11 12 14 14 12 11 11 11 11 12 12 13 13 13 14 13 12 12 13 14 14 14 13 12 12 11 12 12 13 14 15 17 17 17 13 9 8 9 10 7 6 8 10
11 12 12 14 12 12 11 12 12 12 13 14 14 13 13 13 12 12 13 14 15 14 12 11 11 11 11 11 12 14 15 16 16 16 12 11 9 9 8 8 7 8 9
10 12 13 15 13 13 12 12 13 13 15 15 15 13 12 13 13 13 13 14 14 13 11 9 9 10 11 10 11 13 14 16 16 15 12 12 11 12 10 9 9 9 8
10 11 14 15 14 13 13 13 14 15 16 16 15 13 13 13 13 12 13 14 13 12 10 8 8 9 9 10 11 12 14 16 15 13 13 13 13 15 12 11 10 9 8
10 10 13 15 14 15 15 15 15 16 16 16 15 14 13 13 13 12 12 13 12 10 9 8 7 8 9 11 13 14 16 18 14 12 11 12 15 17 16 13 10 9 9
12 9 12 15 15 15 16 17 17 16 16 16 15 15 13 13 13 13 12 11 10 8 7 6 7 7 9 11 14 17 18 16 13 11 10 11 14 16 16 14 11 10 9
9 8 8 12 14 16 17 17 17 16 16 16 16 16 14 14 14 13 12 10 9 8 6 5 5 6 8 11 15 19 20 17 12 10 10 10 13 13 14 14 12 10 9
10 9 7 9 11 13 14 17 17 16 16 16 16 16 15 14 13 12 11 10 9 8 5 3 2 4 8 11 13 17 17 14 12 10 8 9 11 12 11 11 11 10 8
11 9 9 8 9 12 14 15 16 16 17 16 15 16 14 12 12 11 11 10 9 7 5 2 1 5 9 11 13 17 14 11 11 9 9 11 11 11 11 11 10 9 8
13 12 11 10 9 10 12 13 13 13 14 14 13 14 13 12 11 11 12 12 9 7 4 1 2 6 8 9 11 13 11 11 11 9 9 12 12 12 12 11 11 10 9
15 14 14 13 10 8 6 9 9 10 11 12 13 14 12 10 9 9 8 8 7 5 2 1 3 6 7 5 8 10 11 11 11 10 10 11 12 12 12 11 11 11 11
18 18 17 15 13 9 7 7 7 7 7 8 11 13 10 6 5 6 5 6 5 4 3 3 4 6 4 9 11 9 9 10 11 11 11 13 12 13 12 12 12 11 11
19 19 18 17 15 11 9 7 7 6 7 10 12 13 12 6 5 5 5 6 6 5 4 4 3 3 4 8 10 10 8 10 11 11 12 15 15 14 13 13 13 13 13
16 16 15 17 15 12 10 9 8 8 8 10 11 14 14 10 7 5 4 4 6 6 4 5 3 1 1 4 6 8 9 9 9 11 12 15 18 18 17 17 16 16 15
12 10 12 15 14 13 12 11 9 10 11 9 12 16 14 13 10 7 6 5 6 8 6 5 3 2 2 4 6 6 7 7 8 9 12 14 15 19 20 20 20 19 18
15 15 14 14 14 15 12 10 8 9 9 9 12 14 14 14 13 8 7 5 7 8 6 5 3 3 3 4 4 4 5 5 6 6 8 12 14 14 17 20 21 21 20
14 15 14 11 13 13 11 8 9 7 7 8 10 10 11 14 16 11 7 6 8 5 4 5 3 3 4 5 5 5 5 6 4 5 5 8 12 14 14 17 19 20 21
9 10 11 8 8 7 6 5 6 6 6 4 6 8 10 13 17 11 7 6 7 6 5 5 5 2 4 5 6 5 5 5 5 4 4 6 8 10 12 12 13 15 19
7 7 8 8 6 6 5 5 5 5 4 3 4 7 9 13 14 8 8 7 7 8 8 8 5 5 3 3 5 4 5 5 5 4 3 4 6 10 13 13 13 12 12
6 6 6 7 6 5 4 3 2 2 2 2 3 4 8 10 11 10 10 8 8 7 9 8 5 4 3 4 5 5 3 4 4 4 3 5 6 9 10 12 14 14 14
6 8 8 8 7 6 4 2 1 2 2 2 2 3 5 10 11 11 8 8 8 8 9 8 7 7 5 3 3 5 5 4 1 2 3 3 6 7 6 9 12 14 14
5 6 7 8 7 6 5 4 3 3 2 2 2 1 3 7 9 10 9 7 8 8 10 11 9 5 7 6 3 1 3 5 5 3 2 2 4 7 6 5 9 12 14
7 6 6 7 7 7 7 6 4 4 3 3 4 4 4 4 3 5 6 6 7 6 7 7 7 6 5 6 5 4 2 1 3 4 4 1 2 3 4 4 7 9 11
8 7 7 7 7 7 8 7 7 8 8 8 7 6 4 3 2 1 2 3 5 4 5 5 7 8 7 6 5 4 5 4 4 4 4 4 3 1 2 2 4 7 9
Wind_Direction
166 175 168 160 152 145 145 144 145 145 144 140 135 127 117 115 113 105 99 96 101 97 91 88 84 80 75 70 66 63 63 65 69 75 78 82 76 64 69 75 70 76 98
164 170 166 160 153 148 148 146 146 145 141 136 134 131 123 120 118 116 110 105 103 98 93 89 86 80 75 69 62 57 63 70 76 78 75 71 76 80 84 87 73 79 93
156 165 164 157 152 152 151 149 146 141 135 134 134 128 121 119 121 119 115 112 108 101 95 93 90 81 71 65 61 59 71 77 78 74 64 52 70 92 97 101 92 95 95
155 160 161 153 153 155 155 151 145 137 132 133 132 127 122 122 120 119 118 116 109 105 102 94 90 84 74 63 60 62 78 82 75 70 58 47 50 80 97 102 105 105 102
157 162 161 154 155 157 156 151 143 138 135 133 134 131 127 122 118 119 118 119 113 107 104 95 86 81 75 63 55 60 85 87 76 67 54 47 48 62 81 94 103 111 106
151 157 156 154 155 154 152 148 143 140 138 139 139 135 130 124 120 116 118 123 118 111 105 96 87 78 72 64 53 57 89 91 77 63 52 45 50 58 71 83 92 97 99
148 150 154 155 156 153 150 147 144 142 143 144 139 133 131 126 123 119 119 123 122 116 107 96 85 80 76 65 53 60 98 95 78 63 52 49 54 58 63 76 86 90 91
148 146 150 154 153 152 149 148 146 146 148 147 140 136 134 131 129 125 123 125 126 116 102 94 88 87 81 65 59 76 97 93 80 68 56 54 59 56 56 64 75 80 84
141 142 141 149 151 152 151 150 148 149 153 151 145 141 138 135 131 131 133 138 141 128 115 111 105 93 70 62 75 89 87 84 75 64 62 58 63 60 56 55 59 69 73
148 150 143 145 148 150 153 153 152 155 157 156 152 147 143 139 136 140 145 151 153 143 133 125 99 63 50 52 79 90 82 76 68 58 52 66 70 69 64 59 56 59 70
159 158 159 155 152 152 154 160 160 161 163 162 159 157 147 140 142 149 157 164 164 157 148 143 28 23 29 39 82 92 82 77 68 54 52 65 70 73 72 66 62 61 67
171 172 171 166 161 162 164 161 164 163 163 159 162 161 156 154 157 162 171 171 168 164 161 148 15 2 12 32 90 97 88 76 63 49 54 67 70 75 76 71 67 65 67
178 178 178 172 169 172 167 161 163 164 162 162 169 169 167 163 166 165 169 172 168 162 136 55 353 342 355 43 103 102 90 78 66 54 59 75 75 75 75 73 72 69 68
179 184 179 175 173 175 167 168 168 169 170 173 181 181 172 164 161 163 169 171 166 165 145 72 16 350 39 107 116 105 86 79 69 58 60 76 77 76 75 75 75 74 72
181 186 180 175 176 173 169 176 175 180 184 183 187 191 181 166 160 165 179 179 180 180 154 108 58 30 110 111 109 108 91 81 76 67 62 68 72 75 78 77 76 75 74
178 182 174 173 177 175 176 181 182 184 189 188 192 196 188 175 167 165 175 181 184 179 165 124 123 107 80 95 101 110 109 97 87 76 67 63 65 70 73 72 72 72 71
152 159 169 173 171 175 180 186 187 185 187 192 197 196 186 176 179 166 161 178 183 174 151 123 124 127 100 90 98 111 116 114 106 89 77 70 64 65 67 67 66 67 67
155 158 171 180 177 179 181 188 190 186 186 193 196 195 185 175 181 158 153 176 177 155 139 130 127 141 111 101 95 102 105 116 122 109 90 84 80 73 67 66 61 58 58
163 159 168 175 184 183 175 184 192 186 191 196 193 189 180 169 174 162 158 168 161 143 147 150 137 143 129 117 108 97 96 107 121 129 112 101 95 85 74 67 63 57 53
152 156 162 164 173 167 154 167 182 192 204 200 202 195 175 164 174 165 145 151 151 149 158 154 134 135 133 132 114 86 66 78 95 111 110 104 102 90 73 64 57 52 51
138 147 156 160 164 155 154 161 174 200 209 205 217 206 175 166 174 156 137 146 156 160 160 146 129 144 124 115 97 66 24 26 52 65 81 93 95 97 83 71 62 54 45
152 161 161 169 168 167 164 157 155 172 193 202 209 194 172 164 160 149 144 150 153 146 137 137 140 142 144 152 134 113 70 11 360 20 59 100 100 100 87 78 70 59 47
157 165 174 181 183 180 173 137 86 77 52 82 123 186 165 149 149 149 150 145 147 149 154 157 165 159 161 184 162 140 147 181 206 7 21 78 104 101 97 87 75 64 51
173 162 160 177 192 197 188 191 177 159 172 160 152 211 134 134 146 157 157 152 153 158 168 178 174 165 156 172 195 174 150 153 146 143 43 37 95 109 114 101 87 75 61
167 168 172 178 194 197 198 199 171 151 141 122 107 86 91 102 122 155 160 153 159 161 180 188 173 173 170 174 175 160 138 126 124 135 153 161 61 73 113 114 108 92 74
169 174 175 181 195 192 190 181 164 159 149 137 118 107 110 116 98 107 180 169 161 157 175 195 191 194 196 194 191 171 164 161 173 147 147 154 134 108 104 111 119 109 91
Height
1514 1515 1517 1518 1519 1519 1520 1520 1521 1521 1522 1523 1523 1524 1524 1525 1525 1525 1526 1526 1526 1526 1526 1527 1527 1527 1527 1527 1526 1526 1526 1525 1525 1526 1527 1527 1528 1529 1530 1530 1530 1529 1528
1514 1515 1516 1517 1518 1519 1520 1521 1521 1522 1523 1523 1524 1525 1525 1526 1526 1526 1526 1527 1527 1527 1527 1528 1528 1528 1528 1528 1527 1528 1527 1526 1526 1528 1528 1528 1528 1529 1530 1531 1531 1531 1530
1514 1515 1516 1517 1518 1519 1520 1521 1522 1522 1523 1524 1525 1526 1526 1526 1527 1527 1527 1527 1527 1528 1529 1530 1529 1529 1529 1529 1529 1529 1529 1528 1528 1529 1529 1530 1530 1530 1531 1532 1532 1531 1531
1515 1515 1516 1517 1518 1519 1520 1521 1522 1523 1524 1524 1525 1526 1527 1527 1527 1528 1528 1528 1528 1529 1530 1531 1530 1530 1530 1530 1531 1531 1531 1531 1530 1530 1530 1530 1530 1530 1531 1532 1532 1532 1532
1515 1515 1516 1516 1517 1519 1520 1520 1521 1523 1524 1525 1526 1527 1528 1528 1528 1529 1529 1529 1529 1530 1531 1531 1531 1531 1531 1532 1532 1532 1533 1533 1533 1532 1532 1532 1531 1531 1531 1532 1533 1533 1533
1514 1515 1516 1516 1517 1519 1520 1521 1522 1523 1525 1526 1527 1528 1529 1529 1529 1530 1530 1530 1530 1531 1532 1532 1532 1532 1532 1533 1533 1533 1534 1534 1534 1534 1534 1533 1532 1532 1532 1533 1534 1534 1534
1514 1515 1516 1517 1517 1518 1520 1521 1523 1525 1526 1527 1528 1529 1530 1530 1530 1531 1531 1531 1531 1532 1533 1533 1533 1533 1534 1534 1534 1534 1535 1535 1535 1535 1535 1534 1533 1534 1534 1534 1535 1536 1535
1515 1516 1517 1518 1519 1519 1520 1522 1524 1525 1527 1528 1529 1530 1531 1531 1531 1532 1533 1533 1534 1534 1534 1534 1534 1535 1535 1536 1536 1536 1537 1537 1536 1536 1535 1535 1535 1535 1535 1536 1536 1537 1537
1516 1516 1518 1519 1520 1521 1521 1522 1524 1526 1527 1528 1529 1531 1532 1533 1533 1534 1534 1535 1536 1536 1536 1537 1537 1537 1538 1538 1538 1539 1539 1538 1537 1536 1536 1536 1536 1536 1536 1536 1537 1537 1537
1517 1517 1518 1519 1520 1521 1522 1523 1524 1526 1527 1529 1530 1531 1533 1534 1535 1535 1536 1536 1537 1538 1539 1539 1540 1540 1540 1540 1540 1540 1540 1539 1537 1537 1537 1537 1537 1537 1537 1537 1537 1538 1538
1517 1518 1518 1519 1520 1521 1522 1523 1524 1526 1527 1529 1531 1531 1533 1534 1535 1536 1536 1537 1539 1540 1541 1541 1542 1542 1542 1541 1541 1541 1540 1539 1538 1539 1538 1537 1537 1537 1537 1537 1538 1539 1539
1515 1517 1518 1519 1519 1520 1521 1522 1523 1525 1526 1528 1530 1531 1533 1534 1535 1536 1537 1538 1540 1542 1543 1543 1544 1544 1543 1542 1542 1542 1541 1540 1540 1540 1539 1539 1539 1538 1538 1538 1539 1539 1540
1513 1515 1516 1517 1519 1520 1521 1522 1523 1524 1525 1527 1529 1531 1533 1534 1535 1537 1538 1539 1541 1542 1544 1545 1545 1545 1545 1544 1544 1544 1543 1542 1541 1541 1540 1540 1540 1540 1540 1540 1540 1540 1540
1509 1511 1513 1515 1517 1519 1521 1522 1523 1524 1525 1526 1528 1530 1532 1534 1536 1537 1539 1540 1541 1543 1545 1545 1546 1546 1546 1546 1546 1546 1544 1543 1542 1542 1542 1542 1542 1541 1542 1542 1541 1541 1541
1505 1508 1510 1513 1515 1517 1520 1521 1522 1523 1524 1526 1527 1530 1531 1534 1536 1537 1539 1541 1542 1544 1545 1546 1547 1547 1547 1547 1547 1546 1545 1545 1545 1544 1544 1544 1544 1543 1544 1543 1543 1542 1541
1503 1506 1509 1510 1513 1516 1518 1519 1520 1521 1523 1525 1527 1529 1531 1533 1536 1537 1539 1541 1542 1544 1546 1547 1547 1548 1548 1548 1547 1547 1547 1548 1548 1547 1546 1546 1546 1545 1545 1544 1544 1543 1542
1502 1506 1508 1509 1510 1513 1515 1517 1517 1518 1521 1523 1525 1528 1530 1532 1535 1536 1538 1540 1542 1543 1545 1547 1548 1549 1549 1549 1549 1549 1549 1550 1550 1549 1549 1548 1548 1547 1547 1546 1546 1545 1544
1498 1501 1505 1507 1507 1508 1510 1513 1514 1516 1518 1520 1522 1525 1528 1531 1533 1535 1537 1539 1540 1542 1544 1546 1548 1550 1550 1550 1550 1550 1550 1551 1551 1551 1551 1550 1550 1550 1549 1549 1548 1547 1546
1496 1497 1500 1502 1504 1504 1506 1509 1512 1514 1516 1518 1520 1523 1526 1529 1531 1533 1535 1538 1540 1541 1544 1545 1547 1550 1551 1551 1552 1552 1552 1552 1552 1553 1553 1551 1551 1551 1551 1550 1550 1548 1547
1494 1496 1497 1499 1501 1503 1505 1507 1509 1512 1514 1516 1518 1521 1524 1526 1529 1532 1534 1536 1538 1541 1543 1544 1546 1549 1550 1551 1553 1553 1554 1554 1554 1555 1554 1553 1552 1551 1551 1551 1551 1550 1549
1492 1493 1495 1496 1498 1500 1502 1504 1506 1508 1511 1513 1515 1518 1521 1523 1526 1529 1531 1534 1536 1538 1541 1543 1545 1548 1549 1551 1553 1554 1555 1556 1556 1556 1556 1555 1553 1553 1553 1553 1552 1551 1550
1490 1491 1492 1494 1495 1497 1499 1502 1504 1506 1508 1510 1512 1515 1518 1521 1523 1526 1529 1531 1534 1536 1538 1541 1544 1546 1548 1549 1551 1552 1555 1558 1558 1558 1558 1556 1555 1555 1555 1555 1554 1553 1551
1488 1489 1490 1492 1493 1495 1497 1500 1502 1503 1504 1506 1508 1511 1515 1518 1520 1523 1526 1528 1531 1534 1536 1539 1542 1544 1545 1548 1550 1551 1552 1554 1557 1558 1558 1557 1556 1556 1556 1557 1556 1555 1554
1487 1488 1489 1491 1492 1493 1495 1497 1499 1500 1501 1503 1505 1508 1511 1515 1517 1520 1524 1527 1529 1532 1535 1537 1539 1541 1543 1545 1547 1549 1550 1550 1553 1556 1558 1557 1557 1556 1557 1557 1557 1556 1555
1486 1486 1488 1489 1490 1492 1493 1494 1496 1497 1499 1500 1502 1505 1508 1511 1515 1518 1522 1525 1527 1530 1532 1535 1537 1539 1541 1543 1544 1546 1547 1548 1549 1551 1554 1556 1557 1556 1556 1557 1557 1557 1556
1485 1485 1487 1487 1488 1489 1490 1491 1493 1495 1497 1499 1500 1503 1506 1510 1512 1516 1520 1523 1525 1528 1530 1532 1535 1537 1539 1541 1542 1543 1544 1545 1546 1548 1550 1553 1555 1556 1556 1556 1557 1557 1557